Time,TemperatureF,DewpointF,PressureIn,WindDirection,WindDirectionDegrees,WindSpeedMPH,WindSpeedGustMPH,Humidity,HourlyPrecipIn,Conditions,Clouds,dailyrainin,SoftwareType,DateUTC
2013-03-03 00:00:00,50.7,41.3,29.99,West,279,0.0,0.0,70,0.00,,OVC,0.00,WeatherDisplay:10.37,2013-03-03 05:00:00,
2013-03-03 00:05:00,50.5,41.4,29.99,West,279,0.0,0.0,71,0.00,,OVC,0.00,WeatherDisplay:10.37,2013-03-03 05:05:00,
2013-03-03 00:10:00,50.4,41.3,29.99,West,279,0.0,0.0,71,0.00,,OVC,0.00,WeatherDisplay:10.37,2013-03-03 05:10:00,
2013-03-03 00:15:00,50.2,41.2,29.98,West,279,0.0,0.0,71,0.00,,OVC,0.00,WeatherDisplay:10.37,2013-03-03 05:15:00,
2013-03-03 00:20:00,49.9,40.9,29.98,West,279,0.0,0.0,71,0.00,,OVC,0.00,WeatherDisplay:10.37,2013-03-03 05:20:00,
2013-03-03 00:25:00,49.8,41.1,29.98,West,279,0.0,0.0,72,0.00,,OVC,0.00,WeatherDisplay:10.37,2013-03-03 05:25:00,
2013-03-03 00:30:00,49.5,40.8,29.98,West,279,0.0,0.0,72,0.00,,OVC,0.00,WeatherDisplay:10.37,2013-03-03 05:30:00,
2013-03-03 00:35:00,49.4,41.1,29.98,West,279,0.0,0.0,73,0.00,,OVC,0.00,WeatherDisplay:10.37,2013-03-03 05:35:00,
2013-03-03 00:40:00,49.2,40.9,29.98,West,279,0.0,0.0,73,0.00,,OVC,0.00,WeatherDisplay:10.37,2013-03-03 05:40:00,
2013-03-03 00:45:00,48.9,41.0,29.98,West,279,0.0,0.0,74,0.00,,OVC,0.00,WeatherDisplay:10.37,2013-03-03 05:45:00,
2013-03-03 00:50:00,48.6,40.7,29.98,West,279,0.0,0.0,74,0.00,,OVC,0.00,WeatherDisplay:10.37,2013-03-03 05:50:00,
2013-03-03 00:55:00,48.5,40.6,29.98,West,279,0.0,0.0,74,0.00,,OVC,0.00,WeatherDisplay:10.37,2013-03-03 05:55:00,
2013-03-03 01:00:00,48.2,40.6,29.98,West,279,0.0,0.0,75,0.00,,OVC,0.00,WeatherDisplay:10.37,2013-03-03 06:00:00,
2013-03-03 01:05:00,48.0,40.8,29.98,West,279,0.0,0.0,76,0.00,,OVC,0.00,WeatherDisplay:10.37,2013-03-03 06:05:00,
2013-03-03 01:10:00,47.7,40.5,29.98,West,279,0.0,0.0,76,0.00,,OVC,0.00,WeatherDisplay:10.37,2013-03-03 06:10:00,
2013-03-03 01:15:00,47.6,40.7,29.98,West,279,0.0,0.0,77,0.00,,OVC,0.00,WeatherDisplay:10.37,2013-03-03 06:15:00,
2013-03-03 01:20:00,47.6,41.1,29.98,West,279,0.0,0.0,78,0.00,,OVC,0.00,WeatherDisplay:10.37,2013-03-03 06:20:00,
2013-03-03 01:25:00,47.7,41.8,29.98,West,279,0.0,0.0,80,0.00,,OVC,0.00,WeatherDisplay:10.37,2013-03-03 06:25:00,
2013-03-03 01:30:00,47.7,41.8,29.97,West,279,0.0,0.0,80,0.00,,OVC,0.00,WeatherDisplay:10.37,2013-03-03 06:30:00,
2013-03-03 01:35:00,47.6,42.1,29.97,West,280,0.0,0.0,81,0.00,,OVC,0.00,WeatherDisplay:10.37,2013-03-03 06:35:00,
2013-03-03 01:40:00,47.6,42.1,29.97,West,280,0.0,0.0,81,0.00,,OVC,0.00,WeatherDisplay:10.37,2013-03-03 06:40:00,
2013-03-03 01:45:00,47.7,42.5,29.98,West,281,5.8,5.8,82,0.00,,OVC,0.00,WeatherDisplay:10.37,2013-03-03 06:45:00,
2013-03-03 01:50:00,47.9,42.7,29.98,WNW,282,0.0,0.0,82,0.00,,OVC,0.00,WeatherDisplay:10.37,2013-03-03 06:50:00,
2013-03-03 01:55:00,48.2,43.3,29.98,WNW,283,0.0,0.0,83,0.00,,OVC,0.00,WeatherDisplay:10.37,2013-03-03 06:55:00,
2013-03-03 02:00:00,48.5,43.6,29.98,WNW,284,0.0,0.0,83,0.00,,OVC,0.00,WeatherDisplay:10.37,2013-03-03 07:00:00,
2013-03-03 02:05:00,48.6,43.7,29.98,WNW,284,0.0,0.0,83,0.00,,OVC,0.00,WeatherDisplay:10.37,2013-03-03 07:05:00,
2013-03-03 02:10:00,48.9,44.0,29.98,WNW,284,0.0,0.0,83,0.00,,OVC,0.00,WeatherDisplay:10.37,2013-03-03 07:10:00,
2013-03-03 02:15:00,49.2,44.3,29.96,WNW,284,0.0,0.0,83,0.00,,OVC,0.00,WeatherDisplay:10.37,2013-03-03 07:15:00,
2013-03-03 02:20:00,49.5,44.6,29.96,WNW,284,0.0,0.0,83,0.00,,OVC,0.00,WeatherDisplay:10.37,2013-03-03 07:20:00,
2013-03-03 02:25:00,49.6,44.6,29.96,WNW,284,0.0,0.0,83,0.00,,OVC,0.00,WeatherDisplay:10.37,2013-03-03 07:25:00,
2013-03-03 02:30:00,49.8,44.8,29.96,WNW,284,0.0,0.0,83,0.00,,OVC,0.00,WeatherDisplay:10.37,2013-03-03 07:30:00,
2013-03-03 02:35:00,49.8,44.8,29.96,WNW,284,0.0,0.0,83,0.00,,OVC,0.00,WeatherDisplay:10.37,2013-03-03 07:35:00,
2013-03-03 02:40:00,49.8,44.8,29.96,WNW,284,0.0,0.0,83,0.00,,OVC,0.00,WeatherDisplay:10.37,2013-03-03 07:40:00,
2013-03-03 02:45:00,49.9,44.6,29.95,WNW,284,0.0,0.0,82,0.00,,OVC,0.00,WeatherDisplay:10.37,2013-03-03 07:45:00,
2013-03-03 02:50:00,49.9,44.6,29.95,WNW,284,0.0,0.0,82,0.00,,OVC,0.00,WeatherDisplay:10.37,2013-03-03 07:50:00,
2013-03-03 02:55:00,49.9,44.6,29.95,WNW,284,0.0,0.0,82,0.00,,OVC,0.00,WeatherDisplay:10.37,2013-03-03 07:55:00,
2013-03-03 03:00:00,49.9,44.6,29.96,WNW,284,0.0,0.0,82,0.00,,OVC,0.00,WeatherDisplay:10.37,2013-03-03 08:00:00,
2013-03-03 03:05:00,49.9,44.6,29.96,WNW,284,0.0,0.0,82,0.00,,OVC,0.00,WeatherDisplay:10.37,2013-03-03 08:05:00,
2013-03-03 03:10:00,49.9,44.3,29.96,WNW,284,0.0,0.0,81,0.00,,OVC,0.00,WeatherDisplay:10.37,2013-03-03 08:10:00,
2013-03-03 03:15:00,49.9,44.3,29.95,WNW,285,1.2,0.0,81,0.00,,OVC,0.00,WeatherDisplay:10.37,2013-03-03 08:15:00,
2013-03-03 03:20:00,49.8,44.2,29.95,WNW,286,2.3,0.0,81,0.00,,OVC,0.00,WeatherDisplay:10.37,2013-03-03 08:20:00,
2013-03-03 03:25:00,49.8,44.2,29.95,WNW,287,1.2,1.2,81,0.00,,OVC,0.00,WeatherDisplay:10.37,2013-03-03 08:25:00,
2013-03-03 03:31:00,49.8,43.9,29.96,WNW,289,10.4,10.4,80,0.00,,OVC,0.00,WeatherDisplay:10.37,2013-03-03 08:31:00,
2013-03-03 03:36:00,49.9,44.0,29.96,WNW,289,5.8,5.8,80,0.00,,OVC,0.00,WeatherDisplay:10.37,2013-03-03 08:36:00,
2013-03-03 03:41:00,49.9,44.3,29.96,WNW,289,2.3,0.0,81,0.00,,OVC,0.00,WeatherDisplay:10.37,2013-03-03 08:41:00,
2013-03-03 03:46:00,50.1,44.5,29.95,WNW,289,0.0,0.0,81,0.00,,OVC,0.00,WeatherDisplay:10.37,2013-03-03 08:46:00,
2013-03-03 03:51:00,49.9,44.3,29.95,WNW,289,0.0,0.0,81,0.00,,OVC,0.00,WeatherDisplay:10.37,2013-03-03 08:51:00,
2013-03-03 03:56:00,49.9,44.6,29.95,WNW,289,0.0,0.0,82,0.00,,OVC,0.00,WeatherDisplay:10.37,2013-03-03 08:56:00,
2013-03-03 04:01:00,49.9,44.6,29.95,WNW,289,0.0,0.0,82,0.00,,OVC,0.00,WeatherDisplay:10.37,2013-03-03 09:01:00,
2013-03-03 04:06:00,49.8,44.5,29.95,WNW,289,0.0,0.0,82,0.00,,OVC,0.00,WeatherDisplay:10.37,2013-03-03 09:06:00,
2013-03-03 04:11:00,49.8,44.8,29.95,WNW,289,0.0,0.0,83,0.00,,OVC,0.00,WeatherDisplay:10.37,2013-03-03 09:11:00,
2013-03-03 04:16:00,49.8,45.2,29.93,WNW,289,0.0,0.0,84,0.00,,OVC,0.00,WeatherDisplay:10.37,2013-03-03 09:16:00,
2013-03-03 04:21:00,49.6,45.0,29.93,WNW,289,0.0,0.0,84,0.00,,OVC,0.00,WeatherDisplay:10.37,2013-03-03 09:21:00,
2013-03-03 04:26:00,49.6,45.3,29.93,WNW,289,0.0,0.0,85,0.00,,OVC,0.00,WeatherDisplay:10.37,2013-03-03 09:26:00,
2013-03-03 04:31:00,49.5,45.2,29.93,WNW,289,0.0,0.0,85,0.00,,OVC,0.00,WeatherDisplay:10.37,2013-03-03 09:31:00,
2013-03-03 04:36:00,49.5,45.2,29.93,WNW,289,0.0,0.0,85,0.00,,OVC,0.00,WeatherDisplay:10.37,2013-03-03 09:36:00,
2013-03-03 04:41:00,49.5,45.5,29.93,WNW,289,0.0,0.0,86,0.00,,OVC,0.00,WeatherDisplay:10.37,2013-03-03 09:41:00,
2013-03-03 04:46:00,49.5,45.5,29.94,WNW,289,0.0,0.0,86,0.00,,OVC,0.00,WeatherDisplay:10.37,2013-03-03 09:46:00,
2013-03-03 04:51:00,49.5,45.5,29.94,WNW,289,0.0,0.0,86,0.00,,OVC,0.00,WeatherDisplay:10.37,2013-03-03 09:51:00,
2013-03-03 04:56:00,49.5,45.8,29.94,WNW,289,0.0,0.0,87,0.00,,OVC,0.00,WeatherDisplay:10.37,2013-03-03 09:56:00,
2013-03-03 05:01:00,49.6,45.9,29.95,WNW,289,0.0,0.0,87,0.00,,OVC,0.00,WeatherDisplay:10.37,2013-03-03 10:01:00,
2013-03-03 05:06:00,49.8,46.1,29.95,WNW,289,0.0,0.0,87,0.00,,OVC,0.00,WeatherDisplay:10.37,2013-03-03 10:06:00,
2013-03-03 05:11:00,49.8,45.8,29.95,WNW,289,0.0,0.0,86,0.00,,OVC,0.00,WeatherDisplay:10.37,2013-03-03 10:11:00,
2013-03-03 05:16:00,49.8,45.8,29.95,WNW,289,0.0,0.0,86,0.00,,OVC,0.00,WeatherDisplay:10.37,2013-03-03 10:16:00,
2013-03-03 05:21:00,49.8,45.8,29.95,WNW,288,0.0,0.0,86,0.00,,OVC,0.00,WeatherDisplay:10.37,2013-03-03 10:21:00,
2013-03-03 05:26:00,49.8,45.5,29.95,WNW,286,3.0,3.0,85,0.00,,OVC,0.00,WeatherDisplay:10.37,2013-03-03 10:26:00,
2013-03-03 05:31:00,49.6,45.3,29.96,West,266,10.4,10.4,85,0.00,,OVC,0.00,WeatherDisplay:10.37,2013-03-03 10:31:00,
2013-03-03 05:36:00,49.6,45.0,29.96,West,265,2.3,2.3,84,0.00,,OVC,0.00,WeatherDisplay:10.37,2013-03-03 10:36:00,
2013-03-03 05:41:00,49.6,45.0,29.96,West,267,4.6,4.6,84,0.00,,OVC,0.00,WeatherDisplay:10.37,2013-03-03 10:41:00,
2013-03-03 05:46:00,49.5,44.9,29.97,West,261,8.1,8.1,84,0.01,RA,OVC,0.01,WeatherDisplay:10.37,2013-03-03 10:46:00,
2013-03-03 05:51:00,49.5,44.9,29.97,WSW,257,3.5,3.5,84,0.01,RA,OVC,0.01,WeatherDisplay:10.37,2013-03-03 10:51:00,
2013-03-03 05:56:00,49.5,44.9,29.97,West,263,13.0,13.0,84,0.01,,OVC,0.01,WeatherDisplay:10.37,2013-03-03 10:56:00,
2013-03-03 06:01:00,49.4,45.1,29.97,WSW,256,10.4,10.4,85,0.01,,OVC,0.01,WeatherDisplay:10.37,2013-03-03 11:01:00,
2013-03-03 06:06:00,49.2,44.9,29.97,West,261,0.0,0.0,85,0.01,,OVC,0.01,WeatherDisplay:10.37,2013-03-03 11:06:00,
2013-03-03 06:11:00,49.2,44.9,29.97,West,261,0.0,0.4,85,0.01,,OVC,0.01,WeatherDisplay:10.37,2013-03-03 11:11:00,
2013-03-03 06:16:00,49.1,45.1,29.96,West,261,0.0,0.0,86,0.02,RA,OVC,0.02,WeatherDisplay:10.37,2013-03-03 11:16:00,
2013-03-03 06:21:00,49.1,45.1,29.96,West,261,0.0,0.0,86,0.02,RA,OVC,0.02,WeatherDisplay:10.37,2013-03-03 11:21:00,
2013-03-03 06:26:00,49.1,45.4,29.96,West,261,0.0,0.0,87,0.02,,OVC,0.02,WeatherDisplay:10.37,2013-03-03 11:26:00,
2013-03-03 06:31:00,49.1,45.4,29.97,West,261,0.0,0.0,87,0.02,,OVC,0.02,WeatherDisplay:10.37,2013-03-03 11:31:00,
2013-03-03 06:36:00,49.2,45.8,29.97,West,261,3.0,3.0,88,0.02,,OVC,0.02,WeatherDisplay:10.37,2013-03-03 11:36:00,
2013-03-03 06:41:00,49.1,45.7,29.97,West,261,0.0,0.0,88,0.02,,OVC,0.02,WeatherDisplay:10.37,2013-03-03 11:41:00,
2013-03-03 06:46:00,49.2,46.1,29.97,West,260,0.0,0.0,89,0.01,,OVC,0.02,WeatherDisplay:10.37,2013-03-03 11:46:00,
2013-03-03 06:51:00,49.1,46.0,29.97,West,261,0.0,0.0,89,0.01,,OVC,0.02,WeatherDisplay:10.37,2013-03-03 11:51:00,
2013-03-03 06:56:00,49.1,46.0,29.97,West,260,0.0,0.0,89,0.01,,OVC,0.02,WeatherDisplay:10.37,2013-03-03 11:56:00,
2013-03-03 07:01:00,48.9,45.8,29.97,West,260,3.5,3.5,89,0.01,,OVC,0.02,WeatherDisplay:10.37,2013-03-03 12:01:00,
2013-03-03 07:06:00,48.9,45.8,29.97,West,260,0.0,0.0,89,0.01,,OVC,0.02,WeatherDisplay:10.37,2013-03-03 12:06:00,
2013-03-03 07:11:00,48.8,45.7,29.97,West,260,0.0,0.0,89,0.01,,OVC,0.02,WeatherDisplay:10.37,2013-03-03 12:11:00,
2013-03-03 07:16:00,48.6,45.5,29.96,West,261,0.0,0.0,89,0.00,,OVC,0.02,WeatherDisplay:10.37,2013-03-03 12:16:00,
2013-03-03 07:21:00,48.6,45.5,29.96,West,261,0.0,0.0,89,0.00,,OVC,0.02,WeatherDisplay:10.37,2013-03-03 12:21:00,
2013-03-03 07:26:00,48.8,46.0,29.96,West,261,0.0,0.0,90,0.00,,OVC,0.02,WeatherDisplay:10.37,2013-03-03 12:26:00,
2013-03-03 07:31:00,48.8,46.0,29.97,West,261,4.6,4.6,90,0.00,,OVC,0.02,WeatherDisplay:10.37,2013-03-03 12:31:00,
2013-03-03 07:36:00,48.9,46.1,29.97,West,261,3.5,0.0,90,0.00,,OVC,0.02,WeatherDisplay:10.37,2013-03-03 12:36:00,
2013-03-03 07:41:00,49.2,46.4,29.97,West,263,1.2,0.0,90,0.00,,OVC,0.02,WeatherDisplay:10.37,2013-03-03 12:41:00,
2013-03-03 07:46:00,49.5,46.4,29.98,WNW,296,4.0,4.0,89,0.00,,OVC,0.02,WeatherDisplay:10.37,2013-03-03 12:46:00,
2013-03-03 07:51:00,49.5,46.4,29.98,WNW,284,13.8,13.8,89,0.00,,OVC,0.02,WeatherDisplay:10.37,2013-03-03 12:51:00,
2013-03-03 07:56:00,49.8,46.4,29.98,West,260,0.0,0.0,88,0.00,,OVC,0.02,WeatherDisplay:10.37,2013-03-03 12:56:00,
2013-03-03 08:01:00,49.9,45.9,29.98,West,266,19.6,19.6,86,0.00,,OVC,0.02,WeatherDisplay:10.37,2013-03-03 13:01:00,
2013-03-03 08:06:00,50.2,45.6,29.98,West,279,19.6,19.6,84,0.00,,OVC,0.02,WeatherDisplay:10.37,2013-03-03 13:06:00,
2013-03-03 08:11:00,50.7,45.4,29.98,WNW,291,13.8,13.8,82,0.00,,OVC,0.02,WeatherDisplay:10.37,2013-03-03 13:11:00,
2013-03-03 08:16:00,51.0,44.7,29.98,West,269,20.7,20.7,79,0.00,,OVC,0.02,WeatherDisplay:10.37,2013-03-03 13:16:00,
2013-03-03 08:21:00,51.4,44.8,29.98,WNW,297,15.0,15.0,78,0.00,,OVC,0.02,WeatherDisplay:10.37,2013-03-03 13:21:00,
2013-03-03 08:26:00,51.7,44.7,29.98,WSW,257,5.8,5.8,77,0.00,,OVC,0.02,WeatherDisplay:10.37,2013-03-03 13:26:00,
2013-03-03 08:31:00,52.2,44.9,29.99,West,265,0.0,0.0,76,0.00,,OVC,0.02,WeatherDisplay:10.37,2013-03-03 13:31:00,
2013-03-03 08:36:00,52.8,45.4,29.99,NW,310,8.1,0.0,76,0.00,,OVC,0.02,WeatherDisplay:10.37,2013-03-03 13:36:00,
2013-03-03 08:41:00,53.1,45.4,29.99,NW,305,15.0,15.0,75,0.00,,OVC,0.02,WeatherDisplay:10.37,2013-03-03 13:41:00,
2013-03-03 08:46:00,53.3,44.5,30.00,West,267,20.7,20.7,72,0.00,,OVC,0.02,WeatherDisplay:10.37,2013-03-03 13:46:00,
2013-03-03 08:51:00,53.3,44.9,30.00,West,263,23.0,23.0,73,0.00,,OVC,0.02,WeatherDisplay:10.37,2013-03-03 13:51:00,
2013-03-03 08:56:00,53.1,45.0,30.00,NW,319,12.7,12.7,74,0.00,,OVC,0.02,WeatherDisplay:10.37,2013-03-03 13:56:00,
2013-03-03 09:01:00,52.8,44.7,30.00,NW,304,19.6,19.6,74,0.00,,OVC,0.02,WeatherDisplay:10.37,2013-03-03 14:01:00,
2013-03-03 09:06:00,52.8,44.7,30.00,WNW,294,23.0,23.0,74,0.00,,OVC,0.02,WeatherDisplay:10.37,2013-03-03 14:06:00,
2013-03-03 09:11:00,52.2,43.4,30.00,WNW,300,15.0,15.0,72,0.00,,OVC,0.02,WeatherDisplay:10.37,2013-03-03 14:11:00,
2013-03-03 09:16:00,52.2,43.1,30.01,WNW,291,18.4,18.4,71,0.00,,OVC,0.02,WeatherDisplay:10.37,2013-03-03 14:16:00,
2013-03-03 09:21:00,52.0,42.1,30.01,North,351,17.3,17.3,69,0.00,,OVC,0.02,WeatherDisplay:10.37,2013-03-03 14:21:00,
2013-03-03 09:26:00,52.2,42.3,30.01,NNW,328,20.7,20.7,69,0.00,,OVC,0.02,WeatherDisplay:10.37,2013-03-03 14:26:00,
2013-03-03 09:32:00,52.2,41.2,30.01,NW,309,18.4,18.4,66,0.00,,OVC,0.02,WeatherDisplay:10.37,2013-03-03 14:32:00,
2013-03-03 09:37:00,52.3,40.9,30.01,NNE,20,16.1,16.1,65,0.00,,OVC,0.02,WeatherDisplay:10.37,2013-03-03 14:37:00,
2013-03-03 09:42:00,52.6,41.2,30.01,NW,317,16.1,16.1,65,0.00,,OVC,0.02,WeatherDisplay:10.37,2013-03-03 14:42:00,
2013-03-03 09:47:00,53.1,41.2,30.01,NW,323,20.7,20.7,64,0.00,,OVC,0.02,WeatherDisplay:10.37,2013-03-03 14:47:00,
2013-03-03 09:52:00,53.5,41.2,30.01,WNW,282,16.0,16.0,63,0.00,,OVC,0.02,WeatherDisplay:10.37,2013-03-03 14:52:00,
2013-03-03 09:57:00,53.3,40.2,30.01,West,263,26.5,26.5,61,0.00,,OVC,0.02,WeatherDisplay:10.37,2013-03-03 14:57:00,
2013-03-03 10:02:00,53.2,40.5,30.01,NNW,348,21.0,21.0,62,0.00,CLR,OVC,0.02,WeatherDisplay:10.37,2013-03-03 15:02:00,
2013-03-03 10:07:00,53.1,40.0,30.01,WNW,292,25.3,25.3,61,0.00,CLR,OVC,0.02,WeatherDisplay:10.37,2013-03-03 15:07:00,
2013-03-03 10:12:00,53.3,40.2,30.01,North,351,27.6,27.6,61,0.00,CLR,OVC,0.02,WeatherDisplay:10.37,2013-03-03 15:12:00,
2013-03-03 10:17:00,53.5,39.9,30.01,NW,321,19.6,19.6,60,0.00,CLR,OVC,0.02,WeatherDisplay:10.37,2013-03-03 15:17:00,
2013-03-03 10:22:00,53.6,39.6,30.01,NW,315,24.2,24.2,59,0.00,CLR,OVC,0.02,WeatherDisplay:10.37,2013-03-03 15:22:00,
2013-03-03 10:27:00,53.9,39.0,30.01,NW,314,29.9,29.9,57,0.00,CLR,OVC,0.02,WeatherDisplay:10.37,2013-03-03 15:27:00,
2013-03-03 10:32:00,53.8,39.8,30.02,WSW,245,19.6,19.6,59,0.00,CLR,OVC,0.02,WeatherDisplay:10.37,2013-03-03 15:32:00,
2013-03-03 10:37:00,53.8,39.4,30.02,NNW,329,21.9,21.9,58,0.00,CLR,OVC,0.02,WeatherDisplay:10.37,2013-03-03 15:37:00,
2013-03-03 10:42:00,53.2,39.2,30.02,NW,319,19.6,19.6,59,0.00,CLR,OVC,0.02,WeatherDisplay:10.37,2013-03-03 15:42:00,
2013-03-03 10:47:00,53.5,39.9,30.02,NW,323,26.5,26.5,60,0.00,CLR,OVC,0.02,WeatherDisplay:10.37,2013-03-03 15:47:00,
2013-03-03 10:52:00,53.8,39.4,30.02,NNW,344,16.1,16.1,58,0.00,CLR,OVC,0.02,WeatherDisplay:10.37,2013-03-03 15:52:00,
2013-03-03 10:57:00,54.2,38.8,30.02,NW,323,28.8,28.8,56,0.00,CLR,OVC,0.02,WeatherDisplay:10.37,2013-03-03 15:57:00,
2013-03-03 11:02:00,54.5,39.1,30.01,NNW,333,13.8,13.8,56,0.00,,OVC,0.02,WeatherDisplay:10.37,2013-03-03 16:02:00,
2013-03-03 11:07:00,54.8,39.4,30.01,NW,307,18.4,18.4,56,0.00,,OVC,0.02,WeatherDisplay:10.37,2013-03-03 16:07:00,
2013-03-03 11:12:00,55.3,39.9,30.01,West,269,18.4,18.4,56,0.00,,OVC,0.02,WeatherDisplay:10.37,2013-03-03 16:12:00,
2013-03-03 11:17:00,55.9,40.4,30.02,NW,307,17.3,17.3,56,0.00,,OVC,0.02,WeatherDisplay:10.37,2013-03-03 16:17:00,
2013-03-03 11:22:00,56.3,40.8,30.02,WNW,291,21.0,21.0,56,0.00,,OVC,0.02,WeatherDisplay:10.37,2013-03-03 16:22:00,
2013-03-03 11:27:00,56.9,40.4,30.02,WNW,303,24.2,24.2,54,0.00,,OVC,0.02,WeatherDisplay:10.37,2013-03-03 16:27:00,
2013-03-03 11:32:00,57.0,39.5,30.01,NW,309,21.9,21.9,52,0.00,,OVC,0.02,WeatherDisplay:10.37,2013-03-03 16:32:00,
2013-03-03 11:37:00,57.3,40.3,30.01,North,355,18.0,18.0,53,0.00,,OVC,0.02,WeatherDisplay:10.37,2013-03-03 16:37:00,
2013-03-03 11:42:00,56.7,39.3,30.01,WNW,298,15.0,15.0,52,0.00,,OVC,0.02,WeatherDisplay:10.37,2013-03-03 16:42:00,
2013-03-03 11:47:00,56.7,39.3,30.00,NNW,341,11.5,11.5,52,0.00,,OVC,0.02,WeatherDisplay:10.37,2013-03-03 16:47:00,
2013-03-03 11:52:00,57.0,39.5,30.00,NNW,331,24.2,24.2,52,0.00,,OVC,0.02,WeatherDisplay:10.37,2013-03-03 16:52:00,
2013-03-03 11:57:00,57.0,39.0,30.00,NW,324,21.9,21.9,51,0.00,,OVC,0.02,WeatherDisplay:10.37,2013-03-03 16:57:00,
2013-03-03 12:02:00,57.3,39.8,30.00,NNW,342,21.9,21.9,52,0.00,,OVC,0.02,WeatherDisplay:10.37,2013-03-03 17:02:00,
2013-03-03 12:07:00,56.7,39.3,30.00,WNW,294,25.0,25.0,52,0.00,,OVC,0.02,WeatherDisplay:10.37,2013-03-03 17:07:00,
2013-03-03 12:12:00,56.7,39.3,30.00,North,5,27.6,27.6,52,0.00,,OVC,0.02,WeatherDisplay:10.37,2013-03-03 17:12:00,
2013-03-03 12:17:00,57.2,39.2,30.00,North,360,26.5,26.5,51,0.00,,OVC,0.02,WeatherDisplay:10.37,2013-03-03 17:17:00,
2013-03-03 12:22:00,58.0,40.0,30.00,WNW,283,31.1,31.1,51,0.00,,OVC,0.02,WeatherDisplay:10.37,2013-03-03 17:22:00,
2013-03-03 12:27:00,58.4,40.8,30.00,West,281,28.8,28.8,52,0.00,,OVC,0.02,WeatherDisplay:10.37,2013-03-03 17:27:00,
2013-03-03 12:32:00,58.7,39.0,30.00,NW,323,19.0,19.0,48,0.00,,OVC,0.02,WeatherDisplay:10.37,2013-03-03 17:32:00,
2013-03-03 12:37:00,58.6,39.5,30.00,NW,318,13.8,13.8,49,0.00,,OVC,0.02,WeatherDisplay:10.37,2013-03-03 17:37:00,
2013-03-03 12:42:00,58.4,39.3,30.00,NNW,336,26.5,26.5,49,0.00,,OVC,0.02,WeatherDisplay:10.37,2013-03-03 17:42:00,
2013-03-03 12:47:00,58.6,39.5,29.99,North,11,23.0,23.0,49,0.00,,OVC,0.02,WeatherDisplay:10.37,2013-03-03 17:47:00,
2013-03-03 12:52:00,58.6,40.0,29.99,WNW,286,10.4,10.4,50,0.00,,OVC,0.02,WeatherDisplay:10.37,2013-03-03 17:52:00,
2013-03-03 12:57:00,59.0,39.9,29.99,West,281,32.2,32.2,49,0.00,,OVC,0.02,WeatherDisplay:10.37,2013-03-03 17:57:00,
2013-03-03 13:02:00,59.5,39.8,29.98,WNW,288,31.0,31.0,48,0.00,,OVC,0.02,WeatherDisplay:10.37,2013-03-03 18:02:00,
2013-03-03 13:07:00,59.8,39.5,29.98,WNW,294,20.7,20.7,47,0.00,,OVC,0.02,WeatherDisplay:10.37,2013-03-03 18:07:00,
2013-03-03 13:12:00,59.8,39.5,29.98,WNW,291,26.5,26.5,47,0.00,,OVC,0.02,WeatherDisplay:10.37,2013-03-03 18:12:00,
2013-03-03 13:17:00,59.6,39.3,29.97,WNW,297,24.2,24.2,47,0.00,,OVC,0.02,WeatherDisplay:10.37,2013-03-03 18:17:00,
2013-03-03 13:22:00,59.8,40.6,29.97,NW,312,27.6,27.6,49,0.00,,OVC,0.02,WeatherDisplay:10.37,2013-03-03 18:22:00,
2013-03-03 13:27:00,60.1,39.8,29.97,SW,234,17.3,17.3,47,0.00,,OVC,0.02,WeatherDisplay:10.37,2013-03-03 18:27:00,
2013-03-03 13:32:00,60.1,39.2,29.97,WNW,303,23.0,23.0,46,0.00,,OVC,0.02,WeatherDisplay:10.37,2013-03-03 18:32:00,
2013-03-03 13:37:00,60.2,39.9,29.97,NW,326,19.0,19.0,47,0.00,,OVC,0.02,WeatherDisplay:10.37,2013-03-03 18:37:00,
2013-03-03 13:42:00,60.5,39.6,29.97,WNW,300,30.0,30.0,46,0.00,,OVC,0.02,WeatherDisplay:10.37,2013-03-03 18:42:00,
2013-03-03 13:47:00,60.9,40.0,29.97,NW,306,16.1,16.1,46,0.00,,OVC,0.02,WeatherDisplay:10.37,2013-03-03 18:47:00,
2013-03-03 13:52:00,61.2,40.2,29.97,NW,313,13.8,13.8,46,0.00,,OVC,0.02,WeatherDisplay:10.37,2013-03-03 18:52:00,
2013-03-03 13:57:00,61.2,40.2,29.97,WSW,255,16.1,16.1,46,0.00,,OVC,0.02,WeatherDisplay:10.37,2013-03-03 18:57:00,
2013-03-03 14:02:00,61.0,40.1,29.97,WNW,287,17.0,17.0,46,0.00,,OVC,0.02,WeatherDisplay:10.37,2013-03-03 19:02:00,
2013-03-03 14:07:00,60.5,39.6,29.97,WNW,292,23.0,23.0,46,0.00,,OVC,0.02,WeatherDisplay:10.37,2013-03-03 19:07:00,
2013-03-03 14:12:00,60.4,39.5,29.97,WNW,292,24.2,24.2,46,0.00,,OVC,0.02,WeatherDisplay:10.37,2013-03-03 19:12:00,
2013-03-03 14:17:00,60.7,39.8,29.96,NW,306,17.3,17.3,46,0.00,,OVC,0.02,WeatherDisplay:10.37,2013-03-03 19:17:00,
2013-03-03 14:23:00,60.7,39.8,29.96,NW,316,24.2,24.2,46,0.00,,OVC,0.02,WeatherDisplay:10.37,2013-03-03 19:23:00,
2013-03-03 14:27:00,60.5,40.2,29.96,WNW,300,11.5,11.5,47,0.00,,OVC,0.02,WeatherDisplay:10.37,2013-03-03 19:27:00,
2013-03-03 14:33:00,61.2,40.8,29.96,NW,321,21.9,21.9,47,0.00,,OVC,0.02,WeatherDisplay:10.37,2013-03-03 19:33:00,
2013-03-03 14:38:00,61.2,40.2,29.96,NNW,327,24.2,24.2,46,0.00,,OVC,0.02,WeatherDisplay:10.37,2013-03-03 19:38:00,
2013-03-03 14:43:00,61.3,40.3,29.96,WNW,292,25.3,25.3,46,0.00,,OVC,0.02,WeatherDisplay:10.37,2013-03-03 19:43:00,
2013-03-03 14:48:00,61.2,40.2,29.96,WNW,297,18.4,18.4,46,0.00,,OVC,0.02,WeatherDisplay:10.37,2013-03-03 19:48:00,
2013-03-03 14:53:00,60.5,40.7,29.96,West,260,16.1,16.1,48,0.00,,OVC,0.02,WeatherDisplay:10.37,2013-03-03 19:53:00,
2013-03-03 14:58:00,60.1,40.9,29.96,West,261,26.5,26.5,49,0.00,,OVC,0.02,WeatherDisplay:10.37,2013-03-03 19:58:00,
2013-03-03 15:03:00,59.6,40.4,29.96,NNW,343,19.6,19.6,49,0.00,,OVC,0.02,WeatherDisplay:10.37,2013-03-03 20:03:00,
2013-03-03 15:08:00,60.1,40.9,29.96,WNW,296,16.1,16.1,49,0.00,,OVC,0.02,WeatherDisplay:10.37,2013-03-03 20:08:00,
2013-03-03 15:13:00,60.9,40.0,29.96,NW,307,17.3,17.3,46,0.00,,OVC,0.02,WeatherDisplay:10.37,2013-03-03 20:13:00,
2013-03-03 15:18:00,60.5,40.7,29.96,West,264,16.1,16.1,48,0.00,,OVC,0.02,WeatherDisplay:10.37,2013-03-03 20:18:00,
2013-03-03 15:23:00,60.1,40.9,29.96,WNW,283,11.5,12.6,49,0.00,,OVC,0.02,WeatherDisplay:10.37,2013-03-03 20:23:00,
2013-03-03 15:28:00,59.8,40.6,29.96,West,281,13.8,13.8,49,0.00,,OVC,0.02,WeatherDisplay:10.37,2013-03-03 20:28:00,
2013-03-03 15:33:00,59.5,40.3,29.97,West,275,16.1,16.1,49,0.00,,OVC,0.02,WeatherDisplay:10.37,2013-03-03 20:33:00,
2013-03-03 15:38:00,59.2,40.0,29.97,NW,316,17.3,17.3,49,0.00,,OVC,0.02,WeatherDisplay:10.37,2013-03-03 20:38:00,
2013-03-03 15:43:00,59.0,40.4,29.97,WNW,290,17.3,17.3,50,0.00,,OVC,0.02,WeatherDisplay:10.37,2013-03-03 20:43:00,
2013-03-03 15:48:00,58.9,40.3,29.97,West,263,19.6,19.6,50,0.00,,OVC,0.02,WeatherDisplay:10.37,2013-03-03 20:48:00,
2013-03-03 15:53:00,59.0,40.4,29.97,WNW,293,11.5,11.5,50,0.00,,OVC,0.02,WeatherDisplay:10.37,2013-03-03 20:53:00,
2013-03-03 15:58:00,59.2,41.1,29.97,NW,314,17.3,17.3,51,0.00,,OVC,0.02,WeatherDisplay:10.37,2013-03-03 20:58:00,
2013-03-03 16:03:00,59.5,40.3,29.97,NW,318,5.8,5.8,49,0.00,,OVC,0.02,WeatherDisplay:10.37,2013-03-03 21:03:00,
2013-03-03 16:08:00,59.6,39.9,29.97,West,275,18.4,18.4,48,0.00,,OVC,0.02,WeatherDisplay:10.37,2013-03-03 21:08:00,
2013-03-03 16:13:00,59.5,39.8,29.97,WSW,257,15.0,15.0,48,0.00,,OVC,0.02,WeatherDisplay:10.37,2013-03-03 21:13:00,
2013-03-03 16:18:00,59.8,38.4,29.97,SW,217,32.2,32.2,45,0.00,,OVC,0.02,WeatherDisplay:10.37,2013-03-03 21:18:00,
2013-03-03 16:23:00,60.4,38.4,29.97,WSW,254,24.2,24.2,44,0.00,,OVC,0.02,WeatherDisplay:10.37,2013-03-03 21:23:00,
2013-03-03 16:28:00,60.4,38.9,29.97,West,264,27.6,27.6,45,0.00,,OVC,0.02,WeatherDisplay:10.37,2013-03-03 21:28:00,
2013-03-03 16:33:00,59.9,38.5,29.98,WSW,253,23.0,23.0,45,0.00,,OVC,0.02,WeatherDisplay:10.37,2013-03-03 21:33:00,
2013-03-03 16:38:00,59.8,39.0,29.98,NW,304,38.0,38.0,46,0.00,,OVC,0.02,WeatherDisplay:10.37,2013-03-03 21:38:00,
2013-03-03 16:43:00,60.1,38.7,29.98,West,261,47.2,47.2,45,0.00,,OVC,0.02,WeatherDisplay:10.37,2013-03-03 21:43:00,
2013-03-03 16:48:00,60.5,38.5,29.98,WNW,285,36.8,36.8,44,0.00,,OVC,0.02,WeatherDisplay:10.37,2013-03-03 21:48:00,
2013-03-03 16:53:00,60.4,39.5,29.98,WNW,284,21.9,21.9,46,0.00,,OVC,0.02,WeatherDisplay:10.37,2013-03-03 21:53:00,
2013-03-03 16:58:00,59.9,39.6,29.98,WSW,246,43.7,43.7,47,0.00,,OVC,0.02,WeatherDisplay:10.37,2013-03-03 21:58:00,
2013-03-03 17:03:00,59.8,39.5,29.99,WNW,282,18.4,18.4,47,0.00,,OVC,0.02,WeatherDisplay:10.37,2013-03-03 22:03:00,
2013-03-03 17:08:00,60.1,39.2,29.99,WSW,254,19.6,19.6,46,0.00,,OVC,0.02,WeatherDisplay:10.37,2013-03-03 22:08:00,
2013-03-03 17:13:00,60.2,39.3,29.99,WSW,257,27.6,27.6,46,0.00,,OVC,0.02,WeatherDisplay:10.37,2013-03-03 22:13:00,
2013-03-03 17:18:00,59.9,39.1,29.99,West,275,25.3,25.3,46,0.00,,OVC,0.02,WeatherDisplay:10.37,2013-03-03 22:18:00,
2013-03-03 17:23:00,59.8,39.0,29.99,NW,311,33.4,33.4,46,0.00,,OVC,0.02,WeatherDisplay:10.37,2013-03-03 22:23:00,
2013-03-03 17:28:00,59.6,38.8,29.99,WSW,253,30.0,30.0,46,0.00,,OVC,0.02,WeatherDisplay:10.37,2013-03-03 22:28:00,
2013-03-03 17:33:00,59.3,39.1,29.99,West,261,21.9,21.9,47,0.00,,OVC,0.02,WeatherDisplay:10.37,2013-03-03 22:33:00,
2013-03-03 17:38:00,59.0,39.3,29.99,West,263,19.6,19.6,48,0.00,,OVC,0.02,WeatherDisplay:10.37,2013-03-03 22:38:00,
2013-03-03 17:43:00,58.9,39.8,29.99,WSW,252,19.6,19.6,49,0.00,,OVC,0.02,WeatherDisplay:10.37,2013-03-03 22:43:00,
2013-03-03 17:48:00,58.7,39.6,30.00,WSW,249,19.6,19.6,49,0.00,,OVC,0.02,WeatherDisplay:10.37,2013-03-03 22:48:00,
2013-03-03 17:53:00,58.9,40.3,30.00,West,275,19.6,19.6,50,0.00,,OVC,0.02,WeatherDisplay:10.37,2013-03-03 22:53:00,
2013-03-03 17:58:00,58.9,40.8,30.00,West,269,11.5,11.5,51,0.00,,OVC,0.02,WeatherDisplay:10.37,2013-03-03 22:58:00,
2013-03-03 18:03:00,58.7,40.6,30.00,West,270,10.0,10.0,51,0.00,CLR,OVC,0.02,WeatherDisplay:10.37,2013-03-03 23:03:00,
2013-03-03 18:08:00,58.4,40.3,30.00,West,269,18.4,18.4,51,0.00,CLR,OVC,0.02,WeatherDisplay:10.37,2013-03-03 23:08:00,
2013-03-03 18:13:00,58.1,40.6,30.00,WSW,239,24.2,24.2,52,0.00,CLR,OVC,0.02,WeatherDisplay:10.37,2013-03-03 23:13:00,
2013-03-03 18:18:00,57.8,40.3,30.01,WSW,256,19.6,19.6,52,0.00,CLR,OVC,0.02,WeatherDisplay:10.37,2013-03-03 23:18:00,
2013-03-03 18:23:00,57.5,40.5,30.01,West,281,21.9,21.9,53,0.00,CLR,OVC,0.02,WeatherDisplay:10.37,2013-03-03 23:23:00,
2013-03-03 18:28:00,57.0,40.5,30.01,West,281,19.6,19.6,54,0.00,CLR,OVC,0.02,WeatherDisplay:10.37,2013-03-03 23:28:00,
2013-03-03 18:33:00,56.7,40.7,30.02,West,278,19.6,19.6,55,0.00,CLR,OVC,0.02,WeatherDisplay:10.37,2013-03-03 23:33:00,
2013-03-03 18:38:00,56.6,40.6,30.02,West,277,28.8,28.8,55,0.00,CLR,OVC,0.02,WeatherDisplay:10.37,2013-03-03 23:38:00,
2013-03-03 18:43:00,56.5,40.0,30.02,West,265,34.5,34.5,54,0.00,CLR,OVC,0.02,WeatherDisplay:10.37,2013-03-03 23:43:00,
2013-03-03 18:48:00,56.5,40.5,30.02,West,273,19.6,19.6,55,0.00,CLR,OVC,0.02,WeatherDisplay:10.37,2013-03-03 23:48:00,
2013-03-03 18:53:00,56.3,40.3,30.02,WSW,241,24.0,24.0,55,0.00,CLR,OVC,0.02,WeatherDisplay:10.37,2013-03-03 23:53:00,
2013-03-03 18:58:00,56.2,40.2,30.02,West,277,29.9,29.9,55,0.00,CLR,OVC,0.02,WeatherDisplay:10.37,2013-03-03 23:58:00,
2013-03-03 19:03:00,56.0,40.1,30.03,West,259,26.5,26.5,55,0.00,CLR,OVC,0.02,WeatherDisplay:10.37,2013-03-04 00:03:00,
2013-03-03 19:08:00,55.7,40.2,30.03,West,280,24.2,24.2,56,0.00,CLR,OVC,0.02,WeatherDisplay:10.37,2013-03-04 00:08:00,
2013-03-03 19:13:00,55.6,40.1,30.03,WSW,249,26.5,26.5,56,0.00,CLR,OVC,0.02,WeatherDisplay:10.37,2013-03-04 00:13:00,
2013-03-03 19:18:00,55.4,40.4,30.04,West,272,6.0,6.0,57,0.00,CLR,OVC,0.02,WeatherDisplay:10.37,2013-03-04 00:18:00,
2013-03-03 19:23:00,55.3,40.8,30.04,West,267,24.2,24.2,58,0.00,CLR,OVC,0.02,WeatherDisplay:10.37,2013-03-04 00:23:00,
2013-03-03 19:28:00,55.1,41.0,30.04,West,263,23.0,23.0,59,0.00,CLR,OVC,0.02,WeatherDisplay:10.37,2013-03-04 00:28:00,
2013-03-03 19:33:00,55.0,40.9,30.04,West,270,17.3,17.3,59,0.00,CLR,OVC,0.02,WeatherDisplay:10.37,2013-03-04 00:33:00,
2013-03-03 19:39:00,54.8,41.2,30.04,WNW,283,29.9,29.9,60,0.00,CLR,OVC,0.02,WeatherDisplay:10.37,2013-03-04 00:39:00,
2013-03-03 19:44:00,54.7,41.1,30.04,WSW,251,17.3,17.3,60,0.00,CLR,OVC,0.02,WeatherDisplay:10.37,2013-03-04 00:44:00,
2013-03-03 19:49:00,54.5,40.9,30.05,WSW,246,19.6,19.6,60,0.00,CLR,OVC,0.02,WeatherDisplay:10.37,2013-03-04 00:49:00,
2013-03-03 19:54:00,54.4,41.2,30.05,West,270,20.7,20.7,61,0.00,CLR,OVC,0.02,WeatherDisplay:10.37,2013-03-04 00:54:00,
2013-03-03 19:59:00,54.2,41.0,30.05,West,277,19.6,19.6,61,0.00,CLR,OVC,0.02,WeatherDisplay:10.37,2013-03-04 00:59:00,
2013-03-03 20:04:00,54.1,41.4,30.05,NW,304,16.1,16.1,62,0.00,CLR,OVC,0.02,WeatherDisplay:10.37,2013-03-04 01:04:00,
2013-03-03 20:09:00,53.9,41.2,30.05,West,260,17.3,17.3,62,0.00,CLR,OVC,0.02,WeatherDisplay:10.37,2013-03-04 01:09:00,
2013-03-03 20:14:00,53.6,41.3,30.05,West,262,10.0,10.0,63,0.00,CLR,OVC,0.02,WeatherDisplay:10.37,2013-03-04 01:14:00,
2013-03-03 20:19:00,53.5,41.6,30.06,WSW,246,21.9,21.9,64,0.00,CLR,OVC,0.02,WeatherDisplay:10.37,2013-03-04 01:19:00,
2013-03-03 20:24:00,53.3,41.4,30.06,WSW,254,24.2,24.2,64,0.00,CLR,OVC,0.02,WeatherDisplay:10.37,2013-03-04 01:24:00,
2013-03-03 20:29:00,53.2,41.3,30.06,WSW,258,13.8,13.8,64,0.00,CLR,OVC,0.02,WeatherDisplay:10.37,2013-03-04 01:29:00,
2013-03-03 20:34:00,53.1,41.6,30.07,WSW,244,18.4,18.4,65,0.00,CLR,OVC,0.02,WeatherDisplay:10.37,2013-03-04 01:34:00,
2013-03-03 20:39:00,52.9,41.4,30.07,West,270,5.8,5.8,65,0.00,CLR,OVC,0.02,WeatherDisplay:10.37,2013-03-04 01:39:00,
2013-03-03 20:44:00,52.8,41.7,30.07,West,259,18.4,18.4,66,0.00,CLR,OVC,0.02,WeatherDisplay:10.37,2013-03-04 01:44:00,
2013-03-03 20:49:00,52.6,41.6,30.07,WSW,254,12.7,12.7,66,0.00,CLR,OVC,0.02,WeatherDisplay:10.37,2013-03-04 01:49:00,
2013-03-03 20:54:00,52.5,41.9,30.07,WSW,240,16.1,16.1,67,0.00,CLR,OVC,0.02,WeatherDisplay:10.37,2013-03-04 01:54:00,
2013-03-03 20:59:00,52.3,41.7,30.07,WSW,250,15.0,15.0,67,0.00,CLR,OVC,0.02,WeatherDisplay:10.37,2013-03-04 01:59:00,
2013-03-03 21:04:00,52.2,42.0,30.08,West,281,15.0,15.0,68,0.00,CLR,OVC,0.02,WeatherDisplay:10.37,2013-03-04 02:04:00,
2013-03-03 21:09:00,52.0,41.8,30.08,WSW,252,5.8,5.8,68,0.00,CLR,OVC,0.02,WeatherDisplay:10.37,2013-03-04 02:09:00,
2013-03-03 21:14:00,52.0,42.1,30.09,WSW,256,11.5,11.5,69,0.00,CLR,OVC,0.02,WeatherDisplay:10.37,2013-03-04 02:14:00,
2013-03-03 21:19:00,51.9,42.0,30.09,West,267,13.8,13.8,69,0.00,CLR,OVC,0.02,WeatherDisplay:10.37,2013-03-04 02:19:00,
2013-03-03 21:24:00,51.7,42.2,30.09,West,265,6.9,6.9,70,0.00,CLR,OVC,0.02,WeatherDisplay:10.37,2013-03-04 02:24:00,
2013-03-03 21:29:00,51.7,42.2,30.09,WSW,254,10.4,10.4,70,0.00,CLR,OVC,0.02,WeatherDisplay:10.37,2013-03-04 02:29:00,
2013-03-03 21:34:00,51.6,42.1,30.09,West,275,11.5,11.5,70,0.00,CLR,OVC,0.02,WeatherDisplay:10.37,2013-03-04 02:34:00,
2013-03-03 21:39:00,51.4,42.3,30.09,West,269,12.7,12.7,71,0.00,CLR,OVC,0.02,WeatherDisplay:10.37,2013-03-04 02:39:00,
2013-03-03 21:44:00,51.3,42.2,30.10,West,274,18.4,18.4,71,0.00,CLR,OVC,0.02,WeatherDisplay:10.37,2013-03-04 02:44:00,
2013-03-03 21:49:00,51.3,42.2,30.10,West,267,14.0,14.0,71,0.00,CLR,OVC,0.02,WeatherDisplay:10.37,2013-03-04 02:49:00,
2013-03-03 21:54:00,51.1,42.0,30.10,West,269,11.5,11.5,71,0.00,CLR,OVC,0.02,WeatherDisplay:10.37,2013-03-04 02:54:00,
2013-03-03 21:59:00,51.0,42.3,30.10,West,275,15.0,15.0,72,0.00,CLR,OVC,0.02,WeatherDisplay:10.37,2013-03-04 02:59:00,
2013-03-03 22:04:00,51.0,42.3,30.10,WSW,240,16.0,16.0,72,0.00,CLR,OVC,0.02,WeatherDisplay:10.37,2013-03-04 03:04:00,
2013-03-03 22:09:00,50.8,42.5,30.10,West,263,12.7,12.7,73,0.00,CLR,OVC,0.02,WeatherDisplay:10.37,2013-03-04 03:09:00,
2013-03-03 22:14:00,50.7,42.7,30.10,West,276,13.8,13.8,74,0.00,CLR,OVC,0.02,WeatherDisplay:10.37,2013-03-04 03:14:00,
2013-03-03 22:19:00,50.5,42.5,30.10,WNW,297,9.2,9.2,74,0.00,CLR,OVC,0.02,WeatherDisplay:10.37,2013-03-04 03:19:00,
2013-03-03 22:24:00,50.4,42.8,30.10,West,265,13.8,13.8,75,0.00,CLR,OVC,0.02,WeatherDisplay:10.37,2013-03-04 03:24:00,
2013-03-03 22:29:00,50.2,42.9,30.11,WSW,253,15.0,15.0,76,0.00,CLR,OVC,0.02,WeatherDisplay:10.37,2013-03-04 03:29:00,
2013-03-03 22:34:00,50.1,42.8,30.11,West,259,10.4,10.4,76,0.00,CLR,OVC,0.02,WeatherDisplay:10.37,2013-03-04 03:34:00,
2013-03-03 22:39:00,49.9,43.0,30.11,West,265,13.8,13.8,77,0.00,CLR,OVC,0.02,WeatherDisplay:10.37,2013-03-04 03:39:00,
2013-03-03 22:44:00,49.8,42.9,30.12,West,279,11.5,11.5,77,0.00,CLR,OVC,0.02,WeatherDisplay:10.37,2013-03-04 03:44:00,
2013-03-03 22:49:00,49.6,42.7,30.12,West,272,11.5,11.5,77,0.00,CLR,OVC,0.02,WeatherDisplay:10.37,2013-03-04 03:49:00,
2013-03-03 22:54:00,49.5,42.6,30.12,WNW,282,13.8,13.8,77,0.00,CLR,OVC,0.02,WeatherDisplay:10.37,2013-03-04 03:54:00,
2013-03-03 22:59:00,49.4,42.5,30.12,West,269,11.5,11.5,77,0.00,CLR,OVC,0.02,WeatherDisplay:10.37,2013-03-04 03:59:00,
2013-03-03 23:04:00,49.2,42.0,30.12,WSW,257,18.0,18.0,76,0.00,CLR,OVC,0.02,WeatherDisplay:10.37,2013-03-04 04:04:00,
2013-03-03 23:09:00,49.2,42.0,30.12,WSW,252,20.7,20.7,76,0.00,CLR,OVC,0.02,WeatherDisplay:10.37,2013-03-04 04:09:00,
2013-03-03 23:14:00,49.1,41.5,30.12,WSW,256,11.5,11.5,75,0.00,CLR,OVC,0.02,WeatherDisplay:10.37,2013-03-04 04:14:00,
2013-03-03 23:19:00,48.9,41.3,30.12,WNW,294,21.9,21.9,75,0.00,CLR,OVC,0.02,WeatherDisplay:10.37,2013-03-04 04:19:00,
2013-03-03 23:24:00,48.9,41.0,30.12,WNW,292,22.0,22.0,74,0.00,CLR,OVC,0.02,WeatherDisplay:10.37,2013-03-04 04:24:00,
2013-03-03 23:29:00,48.8,40.9,30.10,WNW,283,26.5,26.5,74,0.00,CLR,OVC,0.02,WeatherDisplay:10.37,2013-03-04 04:29:00,
2013-03-03 23:34:00,48.8,40.5,30.10,NW,318,34.0,34.0,73,0.00,CLR,OVC,0.02,WeatherDisplay:10.37,2013-03-04 04:34:00,
2013-03-03 23:39:00,48.9,40.3,30.10,WNW,289,21.9,21.9,72,0.00,CLR,OVC,0.02,WeatherDisplay:10.37,2013-03-04 04:39:00,
2013-03-03 23:44:00,48.8,40.5,30.10,NW,304,15.0,15.0,73,0.00,CLR,OVC,0.02,WeatherDisplay:10.37,2013-03-04 04:44:00,
2013-03-03 23:50:00,48.8,40.5,30.10,WNW,288,15.0,15.0,73,0.00,CLR,OVC,0.02,WeatherDisplay:10.37,2013-03-04 04:50:00,
2013-03-03 23:55:00,48.8,40.5,30.10,WNW,288,18.4,18.4,73,0.00,CLR,OVC,0.02,WeatherDisplay:10.37,2013-03-04 04:55:00,